Location: Mountain Lakes
(44.1215°N, 71.9554°W)
Time: 03:35:48
(UTC+00:00)

ARGOS Delta rocket - Pass Details

Date: 08 September 2024
Orbit: 631 x 831 km, 96.5° (Epoch: 11 October)

Event Time Altitude Azimuth Distance (km) Brightness Sun altitude
Rises 23:46:20 0° 152° (SSE) 3,301 6.9 -7.2°
Reaches altitude 10° 23:48:47 10° 147° (SSE) 2,351 6.1 -7.6°
Maximum altitude 23:53:46 49° 74° (ENE) 986 4.3 -8.5°
Drops below altitude 10° 23:58:32 10° 0° (N) 2,246 6.6 -9.3°
Sets 00:00:49 0° 355° (N) 3,140 7.5 -9.7°
